When you browse on this site, cookies collect data to enhance your experience and personalize the content and advertising you see.
Visit our Privacy Policy to learn more. By continuing to use the site, you agree to this use of cookies and data.
  • In Romania
  • List of Countries
  • For 7 days
  • Water Temperature
  • Satellite Maps
  • Weather Map
  • Weather Widgets
  • user-avatar
    Login

    Hourly Weather Tibissa

    Today, 19 July, Friday

    Time Temperature Precipitation Wind Pressure Humidity
    00:00 +24°C° 0 mm 2 mps 687 mmHg 45%
    01:00 +23°C° 0 mm 1 mps 686 mmHg 48%
    02:00 +23°C° 0 mm 1 mps 686 mmHg 50%
    03:00 +22°C° 0 mm 1 mps 686 mmHg 52%
    04:00 +22°C° 0 mm 1 mps 686 mmHg 55%
    05:00 +22°C° 0 mm 1 mps 686 mmHg 52%
    06:00 +23°C° 0 mm 1 mps 686 mmHg 50%
    07:00 +23°C° 0 mm 1 mps 687 mmHg 48%
    08:00 +25°C° 0 mm 1 mps 687 mmHg 41%
    09:00 +27°C° 0 mm 1 mps 688 mmHg 34%
    10:00 +28°C° 0 mm 1 mps 688 mmHg 27%
    11:00 +30°C° 0 mm 2 mps 688 mmHg 24%
    12:00 +31°C° 0 mm 2 mps 688 mmHg 22%
    13:00 +33°C° 0 mm 3 mps 688 mmHg 19%
    14:00 +34°C° 0 mm 3 mps 688 mmHg 18%
    15:00 +35°C° 0 mm 4 mps 688 mmHg 17%
    16:00 +35°C° 0 mm 5 mps 688 mmHg 16%
    17:00 +35°C° 0 mm 5 mps 687 mmHg 17%
    18:00 +34°C° 0 mm 4 mps 687 mmHg 18%
    19:00 +34°C° 0 mm 4 mps 687 mmHg 18%
    20:00 +32°C° 0 mm 4 mps 687 mmHg 24%
    21:00 +29°C° 0 mm 4 mps 687 mmHg 29%
    22:00 +28°C° 0 mm 4 mps 687 mmHg 34%
    23:00 +27°C° 0 mm 4 mps 687 mmHg 39%

    Tomorrow, 20 July, Saturday

    Time Temperature Precipitation Wind Pressure Humidity
    00:00 +26°C° 0 mm 4 mps 687 mmHg 44%
    01:00 +26°C° 0 mm 3 mps 687 mmHg 49%
    02:00 +25°C° 0 mm 3 mps 687 mmHg 52%
    03:00 +25°C° 0 mm 2 mps 687 mmHg 54%
    04:00 +24°C° 0 mm 2 mps 686 mmHg 57%
    05:00 +25°C° 0 mm 2 mps 687 mmHg 54%
    06:00 +25°C° 0 mm 2 mps 687 mmHg 52%
    07:00 +26°C° 0 mm 2 mps 687 mmHg 49%
    08:00 +28°C° 0 mm 3 mps 688 mmHg 43%
    09:00 +30°C° 0 mm 4 mps 688 mmHg 37%
    10:00 +33°C° 0 mm 5 mps 689 mmHg 31%
    11:00 +34°C° 0 mm 5 mps 689 mmHg 29%
    12:00 +35°C° 0 mm 6 mps 689 mmHg 27%
    13:00 +36°C° 0 mm 6 mps 689 mmHg 24%
    14:00 +36°C° 0 mm 6 mps 689 mmHg 24%
    15:00 +36°C° 0 mm 6 mps 688 mmHg 24%
    16:00 +36°C° 0 mm 6 mps 688 mmHg 24%
    17:00 +34°C° 0.7 mm 6 mps 687 mmHg 32%
    18:00 +32°C° 0.7 mm 7 mps 687 mmHg 40%
    19:00 +29°C° 0.7 mm 7 mps 687 mmHg 47%
    20:00 +29°C° 0.2 mm 5 mps 687 mmHg 45%
    21:00 +29°C° 0.2 mm 4 mps 688 mmHg 42%
    22:00 +29°C° 0.2 mm 2 mps 688 mmHg 40%
    23:00 +29°C° 0 mm 2 mps 688 mmHg 41%

    Day after tomorrow, 21 July, Sunday

    Time Temperature Precipitation Wind Pressure Humidity
    00:00 +28°C° 0 mm 2 mps 688 mmHg 42%
    01:00 +28°C° 0 mm 2 mps 688 mmHg 43%
    02:00 +27°C° 0 mm 2 mps 688 mmHg 44%
    03:00 +27°C° 0 mm 1 mps 687 mmHg 46%
    04:00 +26°C° 0 mm 1 mps 687 mmHg 47%
    05:00 +27°C° 0 mm 1 mps 687 mmHg 45%
    06:00 +27°C° 0 mm 1 mps 688 mmHg 44%
    07:00 +28°C° 0 mm 1 mps 688 mmHg 43%
    08:00 +29°C° 0 mm 1 mps 689 mmHg 39%
    09:00 +31°C° 0 mm 1 mps 689 mmHg 36%
    10:00 +32°C° 0 mm 2 mps 690 mmHg 33%
    11:00 +34°C° 0 mm 2 mps 690 mmHg 29%
    12:00 +35°C° 0 mm 3 mps 690 mmHg 26%
    13:00 +36°C° 0 mm 3 mps 690 mmHg 23%
    14:00 +36°C° 0 mm 3 mps 689 mmHg 22%
    15:00 +37°C° 0 mm 3 mps 689 mmHg 21%
    16:00 +37°C° 0 mm 3 mps 689 mmHg 20%
    17:00 +36°C° 0 mm 4 mps 689 mmHg 23%
    18:00 +35°C° 0 mm 4 mps 689 mmHg 25%
    19:00 +34°C° 0 mm 5 mps 689 mmHg 28%
    20:00 +32°C° 0 mm 5 mps 689 mmHg 32%
    21:00 +29°C° 0 mm 5 mps 689 mmHg 36%
    22:00 +27°C° 0 mm 5 mps 689 mmHg 40%
    23:00 +26°C° 0 mm 4 mps 689 mmHg 41%

    22 July, Monday

    Time Temperature Precipitation Wind Pressure Humidity
    00:00 +26°C° 0 mm 3 mps 689 mmHg 42%
    01:00 +25°C° 0 mm 2 mps 689 mmHg 42%
    02:00 +25°C° 0 mm 2 mps 689 mmHg 42%
    03:00 +24°C° 0 mm 1 mps 688 mmHg 42%
    04:00 +24°C° 0 mm 1 mps 688 mmHg 41%
    05:00 +24°C° 0 mm 1 mps 688 mmHg 39%
    06:00 +25°C° 0 mm 1 mps 689 mmHg 37%
    07:00 +25°C° 0 mm 1 mps 689 mmHg 36%
    08:00 +27°C° 0 mm 1 mps 689 mmHg 33%
    09:00 +28°C° 0 mm 2 mps 690 mmHg 31%
    10:00 +29°C° 0 mm 2 mps 690 mmHg 29%
    11:00 +31°C° 0 mm 3 mps 690 mmHg 27%
    12:00 +33°C° 0 mm 3 mps 690 mmHg 24%
    13:00 +34°C° 0 mm 4 mps 690 mmHg 22%
    14:00 +34°C° 0 mm 4 mps 690 mmHg 21%
    15:00 +34°C° 0 mm 4 mps 689 mmHg 20%
    16:00 +34°C° 0 mm 4 mps 689 mmHg 19%
    17:00 +34°C° 0 mm 5 mps 689 mmHg 19%
    18:00 +33°C° 0 mm 5 mps 689 mmHg 19%
    19:00 +32°C° 0 mm 5 mps 689 mmHg 19%
    20:00 +30°C° 0 mm 5 mps 689 mmHg 23%
    21:00 +28°C° 0 mm 5 mps 689 mmHg 27%
    22:00 +26°C° 0 mm 5 mps 689 mmHg 31%
    23:00 +26°C° 0 mm 4 mps 688 mmHg 34%

    23 July, Tuesday

    Time Temperature Precipitation Wind Pressure Humidity
    00:00 +25°C° 0 mm 2 mps 688 mmHg 38%
    01:00 +24°C° 0 mm 1 mps 688 mmHg 41%
    02:00 +23°C° 0 mm 1 mps 688 mmHg 42%
    03:00 +23°C° 0 mm 1 mps 687 mmHg 43%
    04:00 +20°C° 0 mm 0 mps 687 mmHg 44%
    05:00 +21°C° 0 mm 0 mps 687 mmHg 40%
    06:00 +24°C° 0 mm 1 mps 688 mmHg 36%
    07:00 +25°C° 0 mm 1 mps 688 mmHg 32%
    08:00 +26°C° 0 mm 1 mps 688 mmHg 27%
    09:00 +28°C° 0 mm 1 mps 688 mmHg 23%
    10:00 +29°C° 0 mm 1 mps 689 mmHg 19%
    11:00 +30°C° 0 mm 1 mps 689 mmHg 17%
    12:00 +31°C° 0 mm 2 mps 688 mmHg 15%
    13:00 +32°C° 0 mm 2 mps 688 mmHg 13%
    14:00 +34°C° 0 mm 2 mps 688 mmHg 13%
    15:00 +34°C° 0 mm 2 mps 688 mmHg 12%
    16:00 +35°C° 0 mm 2 mps 687 mmHg 12%
    17:00 +34°C° 0 mm 3 mps 687 mmHg 12%
    18:00 +34°C° 0 mm 3 mps 687 mmHg 13%
    19:00 +33°C° 0 mm 4 mps 687 mmHg 13%
    20:00 +32°C° 0 mm 4 mps 687 mmHg 16%
    21:00 +30°C° 0 mm 4 mps 687 mmHg 18%
    22:00 +28°C° 0 mm 4 mps 687 mmHg 21%
    23:00 +28°C° 0 mm 3 mps 687 mmHg 23%

    24 July, Wednesday

    Time Temperature Precipitation Wind Pressure Humidity
    00:00 +27°C° 0 mm 3 mps 686 mmHg 25%
    01:00 +26°C° 0 mm 2 mps 686 mmHg 26%
    02:00 +25°C° 0 mm 2 mps 686 mmHg 27%
    03:00 +25°C° 0 mm 2 mps 685 mmHg 28%
    04:00 +24°C° 0 mm 2 mps 685 mmHg 29%
    05:00 +25°C° 0 mm 2 mps 685 mmHg 28%
    06:00 +26°C° 0 mm 2 mps 686 mmHg 26%
    07:00 +27°C° 0 mm 2 mps 686 mmHg 25%
    08:00 +28°C° 0 mm 2 mps 687 mmHg 23%
    09:00 +30°C° 0 mm 3 mps 687 mmHg 21%
    10:00 +33°C° 0 mm 3 mps 687 mmHg 20%
    11:00 +33°C° 0 mm 3 mps 687 mmHg 19%
    12:00 +34°C° 0 mm 3 mps 687 mmHg 18%
    13:00 +35°C° 0 mm 3 mps 686 mmHg 17%
    14:00 +36°C° 0 mm 3 mps 686 mmHg 16%
    15:00 +36°C° 0 mm 3 mps 686 mmHg 16%
    16:00 +37°C° 0 mm 4 mps 685 mmHg 15%
    17:00 +36°C° 0 mm 4 mps 685 mmHg 17%
    18:00 +35°C° 0 mm 5 mps 685 mmHg 18%
    19:00 +34°C° 0 mm 5 mps 684 mmHg 20%
    20:00 +33°C° 0 mm 4 mps 685 mmHg 22%
    21:00 +32°C° 0 mm 4 mps 685 mmHg 24%
    22:00 +30°C° 0 mm 3 mps 685 mmHg 26%
    23:00 +29°C° 0 mm 3 mps 685 mmHg 27%
    Show more